# Land Stadt Wetter Temperatur Luftdruck Luftfeuchtigkeit Sichtweite Windgeschwindigkeit Windrichtung Ortszeit
1 kr Seoul Clear -3 1026 57 10000 13 310 02.08.2018 14:21
2 bg Warna Clouds 8 1014 74 10000 32 270 02.08.2018 14:21
3 jp Nagasaki Clouds 10 1020 66 10000 14 338 02.08.2018 14:21
4 mg Antananarivo Clouds 19 1020 83 10000 22 120 02.08.2018 14:21
5 de Trier Clouds 8 1024 83 10000 22 261 02.08.2018 14:21
6 de München Clouds 3 1023 80 10000 19 307 02.08.2018 14:21
7 de Hamburg Rain 4 1006 91 10000 33 270 02.08.2018 14:21
8 au Alice Springs Clear 21 1008 94 10000 0 0 02.08.2018 14:21
9 fj Suva Clouds 24 1004 100 10000 4 0 02.08.2018 14:21
10 de Berlin Rain 4 995 87 9000 37 250 02.08.2018 14:21
11 bg Sofia Clouds 6 1019 50 10000 28 280 02.08.2018 14:21
12 fi Rovaniemi Snow -7 989 93 4200 9 290 02.08.2018 14:21
13 gb Glasgow Clouds 8 1016 75 10000 15 270 02.08.2018 14:21
14 cn Shanghai Clouds 6 1021 61 10000 29 20 02.08.2018 14:21
15 vn Hanoi Clear 21 1014 83 10000 12 145 02.08.2018 14:21
16 au Perth Clear 24 1012 40 10000 33 110 02.08.2018 14:21
17 pg Port Moresby Clouds 24 1007 100 10000 13 300 02.08.2018 14:21
18 it Mailand Clear 14 1019 55 10000 19 270 02.08.2018 14:21
19 de Emden Clouds 6 1012 82 10000 40 291 02.08.2018 14:21
20 de Hiddensee Clouds 5 1001 91 10000 47 277 02.08.2018 14:21
21 de Flensburg Clouds 6 1003 81 10000 36 280 02.08.2018 14:21
22 gb Manchester Clouds 9 1020 79 10000 33 270 02.08.2018 14:21
23 ph Manila Clouds 26 1012 79 10000 6 130 02.08.2018 14:21
24 fr Bordeaux Clouds 12 1032 62 10000 4 0 02.08.2018 14:21
25 de Köln Clouds 8 1023 67 10000 32 270 02.08.2018 14:21
26 us Las Vegas Clear 3 1025 41 10000 11 260 02.08.2018 14:21
27 de Kassel Rain 6 1013 75 10000 35 260 02.08.2018 14:21
28 ua Kiew Snow 1 1004 90 361 15 263 02.08.2018 14:21
29 fi Helsinki Clouds 1 994 83 10000 7 100 02.08.2018 14:21
30 mx Mexiko Stadt Mist 9 1020 82 8047 9 80 02.08.2018 14:21
31 ie Dublin Clouds 10 1023 76 10000 35 250 02.08.2018 14:21
32 es Las Palmas de Gran Canaria Clouds 20 1020 60 10000 14 3 02.08.2018 14:21
33 sa Riad Clouds 21 1012 47 10000 13 105 02.08.2018 14:21
34 ae Dubai Clear 24 1015 64 10000 15 10 02.08.2018 14:21
35 af Kabul Clouds -1 1028 82 10000 5 223 02.08.2018 14:21
36 us Tucson Clear 4 1017 88 10000 6 180 02.08.2018 14:21
37 mx Veracruz Mist 22 1018 100 6437 6 310 02.08.2018 14:21
38 de Braunschweig Clouds 3 1010 84 10000 30 260 02.08.2018 14:21
39 es Tarifa Clear 15 1025 61 10000 20 78 02.08.2018 14:21
40 do Santo Domingo Clouds 26 1021 80 10000 28 30 02.08.2018 14:21
41 br Manaus Clouds 29 1013 70 10000 11 100 02.08.2018 14:21
42 th Bangkok Clouds 27 1010 57 10000 10 183 02.08.2018 14:21
43 in Nagpur Haze 22 1016 53 3000 0 0 02.08.2018 14:21
44 us Denver Clear -9 1024 61 10000 2 197 02.08.2018 14:21
45 de Oberstdorf Clouds 4 1022 75 2860 8 153 02.08.2018 14:21
46 de Hannover Clear 4 1011 90 10000 24 260 02.08.2018 14:21
47 de Nürnberg Clouds 5 1018 77 10000 28 250 02.08.2018 14:21
48 de Helgoland Clouds 6 1008 75 10000 60 292 02.08.2018 14:22
49 de Torfhaus Snow -1 1012 95 58 29 278 02.08.2018 14:22
50 es Barcelona Clear 14 1026 52 10000 13 240 02.08.2018 14:22
51 pt Lissabon Clear 13 1022 63 10000 14 270 02.08.2018 14:22
52 za Kapstadt Clear 26 1015 49 10000 22 170 02.08.2018 14:22
53 ca Montreal Clouds -12 1023 77 10000 9 190 02.08.2018 14:22
54 eg Kairo Clouds 14 1017 62 10000 15 260 02.08.2018 14:22
55 bo Potisi Clouds 9 1043 76 10000 28 60 02.08.2018 14:22
56 in Jagatsukh Clouds 1 1032 59 10000 22 28 02.08.2018 14:22
57 ru Werchojansk Clouds -33 1012 100 6885 4 83 02.08.2018 14:22
58 gl Nuuk Clouds -12 995 72 10000 6 150 02.08.2018 14:22
59 ru Moskau Clouds 0 1006 97 330 11 162 02.08.2018 14:22
60 gr Athen Clouds 11 1021 36 10000 19 330 02.08.2018 14:22
61 no Hammerfest Snow -2 996 80 10000 15 30 02.08.2018 14:22
62 uy Montevideo Clouds 24 1014 73 10000 26 150 02.08.2018 14:22
63 ar Ushuaia Drizzle 12 1004 76 10000 13 220 02.08.2018 14:22
64 au Darwin Clouds 29 1007 82 10000 17 310 02.08.2018 14:22
65 id Jakarta Clouds 29 1009 74 10000 52 113 02.08.2018 14:22
66 in Mumbai Smoke 30 1011 48 2500 9 20 02.08.2018 14:22
67 cn Lhasa Clear 0 1015 15 10000 12 340 02.08.2018 14:22
68 iq Bagdad Clear 17 1012 45 10000 15 180 02.08.2018 14:22
69 ke Nairobi Clouds 30 1017 20 10000 20 90 02.08.2018 14:22
70 at Wien Clouds 6 1016 75 10000 43 281 02.08.2018 14:22
71 it Palermo Clear 14 1024 46 10000 3 312 02.08.2018 14:22
72 is Reykjavik Clouds -2 1006 69 10000 13 70 02.08.2018 14:22
73 ru Jakutsk Snow -38 1015 67 2400 7 20 02.08.2018 14:22
74 jp Tokio Clear 8 1007 47 10000 28 250 02.08.2018 14:22
75 br Rio de Janeiro Clouds 30 1011 67 10000 22 120 02.08.2018 14:22
76 ar Esquel Clouds 14 1017 35 10000 8 250 02.08.2018 14:22
77 bo La Paz Clouds 11 1039 76 6000 9 90 02.08.2018 14:22
78 ec San Cristobal Rain 27 1010 83 10000 9 200 02.08.2018 14:22
79 de Stuttgart Clouds 6 1022 75 10000 19 230 02.08.2018 14:22
80 bs Nassau Clouds 25 1024 78 10000 9 110 02.08.2018 14:22
81 us Honolulu Clear 21 1013 91 10000 3 264 02.08.2018 14:22
82 de Bremen Clouds 5 1010 90 10000 32 280 02.08.2018 14:22
83 de Frankfurt Clouds 8 1020 69 10000 37 240 02.08.2018 14:22
84 de Dresden Clouds 6 1006 81 10000 24 260 02.08.2018 14:22
85 de Freiburg Clouds 6 1025 79 10000 16 202 02.08.2018 14:22
86 ad Andorra la Vella Clear 6 1028 80 10000 13 14 02.08.2018 14:22
87 de Magdeburg Clouds 3 1009 96 7510 40 263 02.08.2018 14:22
88 tr Alanya Clouds 9 1012 63 10000 46 256 02.08.2018 14:22
89 us Los Angeles Clear 8 1024 44 10000 11 360 02.08.2018 14:22
90 us Death Valley Clear 13 1025 22 10000 10 2 02.08.2018 14:22
91 es Palma de Mallorca Clouds 13 1026 59 10000 19 240 02.08.2018 14:22
92 es Sevilla Clear 18 1025 29 10000 2 0 02.08.2018 14:22
93 fr Paris Clouds 9 1028 66 10000 19 280 02.08.2018 14:22
94 sb Honiara Clouds 26 1007 88 10000 0 71 02.08.2018 14:22
95 ck Avarua Rain 27 1012 78 10000 22 50 02.08.2018 14:22
96 ar Buenos Aires Clouds 25 1015 74 10000 19 100 02.08.2018 14:22
97 fr Nizza Clouds 12 1021 75 10000 17 110 02.08.2018 14:22
98 us New York Clouds 0 1026 66 10000 11 300 02.08.2018 14:22
99 au Sydney Clouds 22 1000 78 10000 9 30 02.08.2018 14:22
100 gb London Clouds 10 1023 69 10000 28 260 02.08.2018 14:22
101 ma Casablanca Clouds 17 1024 59 10000 15 340 02.08.2018 14:23
102 ma Marrakesch Clouds 15 1024 41 8000 7 230 02.08.2018 14:23
103 ch Andermatt Clouds 1 1027 90 10000 12 322 02.08.2018 14:23
104 ch Bern Clouds 5 1028 52 10000 28 290 02.08.2018 14:23
105 at Innsbruck Clouds 8 1020 39 10000 24 310 02.08.2018 14:23
106 it Rom Clear 12 1022 61 10000 7 240 02.08.2018 14:23
107 tr Ankara Clouds 1 1014 63 10000 20 330 02.08.2018 14:23
108 tr Istanbul Clouds 4 1018 75 10000 4 120 02.08.2018 14:23
109 et Addis Abeba Clear 18 1015 30 10000 15 100 02.08.2018 14:23
110 ru Amderma Clouds -5 1001 91 1100 30 208 02.08.2018 14:23
111 ru Surgut Clouds -8 1020 85 10000 11 210 02.08.2018 14:23
112 mn Ulaanbaatar Clear -26 1024 76 10000 4 0 02.08.2018 14:23
113 mn Uliastai Clouds -18 1039 71 10000 10 78 02.08.2018 14:23
114 us Chicago Clouds -9 1029 58 10000 17 220 02.08.2018 14:23
115 cl Santiago Clear 27 999 36 10000 9 210 02.08.2018 14:23
116 us Miami Clouds 27 1024 71 10000 13 130 02.08.2018 14:23
117 us Nome Fog -18 1012 85 805 9 40 02.08.2018 14:23
118 us Fairbanks Snow -13 1011 83 9656 7 50 02.08.2018 14:23
119 cn Peking Clouds -4 1035 20 10000 7 34 02.08.2018 14:23
120 mv Male Clouds 28 1010 78 9000 20 340 02.08.2018 14:23
121 no Oslo Clouds -3 999 93 10000 7 351 02.08.2018 14:23
122 se Stockholm Snow -1 992 92 5000 7 20 02.08.2018 14:23
123 ru Anadyr Mist -6 1004 92 4400 18 100 02.08.2018 14:23
124 qa Doha Dust 22 1012 68 2500 22 120 02.08.2018 14:23
125 nz Wellington Rain 19 1011 89 10000 32 10 02.08.2018 14:23
126 cd Kisangani Rain 25 1007 71 10000 9 201 02.08.2018 14:23
127 pe Cusco Clouds 13 1030 67 10000 6 70 02.08.2018 14:23
128 es Madrid Clear 13 1025 41 10000 9 100 02.08.2018 14:23